Location: Clermont
(50.2608°N, 4.3172°E)
Time: 17:04:31
(UTC+00:00)

Cosmos 967 Rocket - Pass Details

Date: 13 August 2020
Orbit: 949 x 988 km, 65.8° (Epoch: 25 September)

Event Time Altitude Azimuth Distance (km) Brightness Sun altitude
Rises 21:13:29 0° 320° (NW) 3,690 9.3 -17.1°
Reaches altitude 10° 21:16:04 10° 321° (NW) 2,733 8.2 -17.4°
Maximum altitude 21:22:29 87° 235° (SW) 977 4.5 -18.0°
Enters shadow 21:25:49 30° 146° (SE) 1,646 5.1 -18.3°
